DELTA 1 R/B, 3036

Orbit data source: Space-Track

DELTA 1 R/B, 3036 is space debris in SSO originally from a launch on Fri, 10 Nov 1967 UTC launched from the Air Force Western Test Range (AFWTR). Debris objects in space refer to the collection of defunct objects orbiting the Earth. Examples of debris include non-operational satellites, rocket bodies, and fragments generated from explosions, collisions, or faulty payload assembly.

Loading next visibility...
DELTA 1 R/B details
Identifier
3036, 1967-114B
Orbit
SSO
Last TLE update18 hours ago
Origin
Flag of USGSFC (US)
ManufacturerUTC
MissionSpacecraft
Bus & MotorFW4, Unknown motor
Mass~40 kg wet, ~40 kg dry
Launch date (UTC)
1967-11-10 (57 years ago)
Launch vehicleUnknown
Launch site
Air Force Western Test Range (AFWTR)
Object type
Payload
Rocket body
Debris
Shape & HBRCyl, 1.5 m
Radar Cross Section0.687 m², Medium (>0.1 m² and < 1m²)

Expand to show TLE details & history

TLE from 18 hours ago
0 DELTA 1 R/B
1 03036U 67114B   24355.84061858 -.00000028  00000-0  11271-3 0  9996
2 03036 102.0250  78.9421 0048244  95.8113  25.9896 12.54127273614233
Epoch: 2024-12-20T20:10Z
Definitive object data (Epoch: 2024-12-20T20:10:29.445Z)
Latitude56.09492°
Longitude-115.19778°
Altitude1,422.512 km
Speed7.17 km/s
True Right ascension18h 29m 18s
True Declination55° 56' 57"
Sunlit
Object was in daylight at TLE epoch
Visualization TLE readout
Latitude-63.45812°
Longitude-157.93649°
Altitude1,504.549 km
Speed7.097 km/s
Apparent Right ascension22h 02m 51s
Apparent Declination-74° 40' 52"
Sunlit
Object is in daylight
Visualization observer readout
Local Sidereal Time13:05:55
Azimuth163.06° S
Elevation-49.484°
Doppler factor1
Orbital elements
Apogee altitude1,482.578 km
Perigee altitude1,407.096 km
Semi-major axis7,822.974 km
Eccentricity0.0048244
Inclination102.025°
RAAN78.9421°
Arg. of periapsis95.8113°
True anomaly26.23318°
Mean anomaly25.9896°
Eccentric anomaly26.11126°
Mean motion3.13679 °/min
BSTAR0.00011271
Orbital period114.77 mins
Loading maneuver chart data...
Loading historical data...
Loading historical data...
Loading historical data...
Loading historical data...
Loading historical data...
Loading historical data...
Loading historical data...
Other satellites on launch #114 in the year 1967 (1967-11-10 UTC)

DELTA 1 R/B Visibility forecast

Observer location: undefined°, undefined

Span
Click to sort rows by Start time (UTC) header in descending order
Start Az.
Max El. time (UTC)
Max El. Az.
Max El.
End time (UTC)
End Az.
11 mins2024-12-21 17:14:51.176Z46.919° ENE2024-12-21 17:20:51.176Z96.476° ESE20.963°2024-12-21 17:25:51.176Z138.131° SSE
14 mins2024-12-21 19:07:51.176Z12.216° NNE2024-12-21 19:13:51.176Z297.31° NW43.851°2024-12-21 19:21:51.176Z208.941° SW
8 mins2024-12-21 21:01:51.176Z338.979° N2024-12-21 21:04:51.176Z315.047° NNW15.918°2024-12-21 21:09:51.176Z276.325° WNW
12 mins2024-12-22 04:13:51.176Z112.65° SE2024-12-22 04:19:51.176Z54.92° ENE28.811°2024-12-22 04:25:51.176Z1.753° NNE
13 mins2024-12-22 06:05:51.176Z184.339° SSW2024-12-22 06:11:51.176Z255.826° W39.734°2024-12-22 06:18:51.176Z331.766° NNW
|